QPF
0.00 0.00 0.00 0.00 0.00 0.00 0.00 0.00 0.00 0.00 0.00 0.00 0.00 0.00 0.00 0.00 0.00 0.00 0.00 0.00 0.00 0.00 0.00 0.00 0.01 0.01 0.02 0.03 0.03 0.04 0.04 0.04 0.04 0.04 0.03 0.02 0.02 0.01 0.01 0.01 0.01 0.02 0.04
0.00 0.00 0.00 0.00 0.00 0.00 0.00 0.00 0.00 0.00 0.00 0.00 0.00 0.00 0.00 0.00 0.00 0.00 0.00 0.00 0.00 0.00 0.00 0.00 0.01 0.01 0.02 0.03 0.04 0.04 0.05 0.05 0.05 0.05 0.04 0.03 0.03 0.02 0.02 0.01 0.01 0.02 0.03
0.00 0.00 0.00 0.00 0.00 0.00 0.00 0.00 0.00 0.00 0.00 0.00 0.00 0.00 0.00 0.00 0.00 0.00 0.00 0.00 0.00 0.00 0.00 0.00 0.00 0.01 0.02 0.03 0.05 0.05 0.05 0.05 0.05 0.05 0.05 0.04 0.03 0.03 0.02 0.02 0.01 0.01 0.02
0.00 0.00 0.00 0.00 0.00 0.00 0.00 0.00 0.00 0.00 0.00 0.00 0.00 0.00 0.00 0.00 0.00 0.00 0.00 0.00 0.00 0.00 0.00 0.00 0.00 0.01 0.02 0.03 0.04 0.05 0.06 0.06 0.06 0.06 0.05 0.05 0.04 0.03 0.03 0.02 0.02 0.02 0.02
0.00 0.00 0.00 0.00 0.00 0.00 0.00 0.00 0.00 0.00 0.00 0.00 0.00 0.00 0.00 0.00 0.00 0.00 0.00 0.00 0.00 0.00 0.00 0.00 0.00 0.00 0.01 0.02 0.04 0.05 0.06 0.07 0.07 0.07 0.07 0.06 0.05 0.04 0.03 0.03 0.02 0.02 0.02
0.00 0.00 0.00 0.00 0.00 0.00 0.00 0.00 0.00 0.00 0.00 0.00 0.00 0.00 0.00 0.00 0.00 0.00 0.00 0.00 0.00 0.00 0.00 0.00 0.00 0.00 0.00 0.02 0.03 0.05 0.07 0.08 0.08 0.08 0.08 0.08 0.06 0.05 0.04 0.03 0.03 0.02 0.03
0.00 0.00 0.00 0.00 0.00 0.00 0.00 0.00 0.00 0.00 0.00 0.00 0.00 0.00 0.00 0.00 0.00 0.00 0.00 0.00 0.00 0.00 0.00 0.00 0.00 0.00 0.00 0.01 0.02 0.04 0.06 0.08 0.10 0.11 0.10 0.09 0.08 0.07 0.06 0.05 0.04 0.03 0.03
0.00 0.00 0.00 0.00 0.00 0.00 0.00 0.00 0.00 0.00 0.00 0.00 0.00 0.00 0.00 0.00 0.00 0.00 0.00 0.00 0.00 0.00 0.00 0.00 0.00 0.01 0.01 0.01 0.01 0.02 0.04 0.07 0.10 0.12 0.14 0.13 0.12 0.10 0.08 0.06 0.05 0.04 0.04
0.00 0.00 0.00 0.00 0.00 0.00 0.00 0.00 0.00 0.00 0.00 0.00 0.00 0.00 0.00 0.00 0.00 0.00 0.00 0.00 0.00 0.00 0.00 0.00 0.00 0.00 0.01 0.02 0.02 0.02 0.03 0.07 0.10 0.13 0.16 0.17 0.16 0.14 0.12 0.09 0.07 0.05 0.04
0.00 0.00 0.00 0.00 0.00 0.00 0.00 0.00 0.00 0.00 0.00 0.00 0.00 0.00 0.00 0.00 0.01 0.00 0.00 0.00 0.00 0.00 0.00 0.00 0.00 0.00 0.01 0.01 0.02 0.02 0.04 0.07 0.11 0.15 0.18 0.20 0.21 0.19 0.16 0.13 0.10 0.07 0.05
0.00 0.00 0.00 0.00 0.00 0.00 0.00 0.00 0.00 0.00 0.00 0.00 0.00 0.00 0.00 0.00 0.00 0.01 0.00 0.00 0.00 0.00 0.00 0.00 0.00 0.00 0.00 0.01 0.01 0.02 0.04 0.09 0.14 0.16 0.18 0.22 0.25 0.25 0.22 0.20 0.15 0.11 0.07
0.00 0.00 0.00 0.00 0.00 0.00 0.00 0.00 0.00 0.00 0.00 0.00 0.00 0.00 0.00 0.00 0.00 0.00 0.00 0.00 0.00 0.00 0.00 0.00 0.00 0.00 0.00 0.00 0.01 0.02 0.04 0.07 0.11 0.14 0.16 0.18 0.21 0.23 0.24 0.24 0.21 0.16 0.11
0.00 0.00 0.00 0.00 0.00 0.00 0.00 0.00 0.00 0.00 0.00 0.00 0.00 0.00 0.00 0.00 0.00 0.00 0.00 0.00 0.00 0.00 0.00 0.00 0.00 0.00 0.00 0.00 0.00 0.01 0.02 0.04 0.05 0.08 0.10 0.12 0.14 0.16 0.18 0.20 0.22 0.20 0.15
0.00 0.00 0.00 0.00 0.00 0.00 0.00 0.00 0.00 0.00 0.00 0.00 0.00 0.00 0.00 0.00 0.00 0.00 0.00 0.02 0.02 0.01 0.00 0.00 0.00 0.00 0.00 0.00 0.00 0.01 0.01 0.02 0.03 0.04 0.06 0.08 0.09 0.10 0.12 0.14 0.16 0.18 0.16
0.00 0.00 0.00 0.00 0.00 0.00 0.00 0.00 0.00 0.00 0.00 0.00 0.00 0.00 0.00 0.00 0.00 0.00 0.01 0.02 0.05 0.04 0.01 0.00 0.00 0.00 0.00 0.00 0.00 0.00 0.00 0.01 0.02 0.03 0.05 0.06 0.06 0.07 0.07 0.08 0.10 0.12 0.12
0.00 0.00 0.00 0.00 0.00 0.00 0.00 0.00 0.00 0.00 0.00 0.00 0.00 0.00 0.00 0.00 0.00 0.00 0.01 0.02 0.04 0.05 0.03 0.00 0.00 0.00 0.00 0.00 0.00 0.00 0.00 0.00 0.01 0.01 0.02 0.03 0.05 0.05 0.05 0.05 0.06 0.08 0.09
0.00 0.00 0.00 0.00 0.00 0.00 0.00 0.00 0.00 0.00 0.00 0.00 0.00 0.00 0.00 0.00 0.01 0.01 0.02 0.02 0.03 0.03 0.04 0.01 0.00 0.00 0.00 0.00 0.00 0.00 0.00 0.00 0.00 0.00 0.01 0.01 0.03 0.04 0.04 0.04 0.04 0.05 0.06
0.00 0.00 0.00 0.00 0.00 0.00 0.00 0.00 0.00 0.00 0.00 0.00 0.00 0.00 0.00 0.00 0.01 0.01 0.02 0.02 0.02 0.01 0.03 0.02 0.00 0.00 0.00 0.00 0.00 0.00 0.00 0.00 0.00 0.00 0.00 0.01 0.01 0.02 0.03 0.03 0.03 0.03 0.04
0.00 0.00 0.00 0.00 0.00 0.00 0.00 0.00 0.00 0.00 0.00 0.00 0.00 0.01 0.01 0.01 0.01 0.01 0.01 0.01 0.01 0.01 0.02 0.03 0.02 0.00 0.00 0.00 0.00 0.00 0.00 0.00 0.00 0.00 0.00 0.00 0.01 0.01 0.02 0.02 0.02 0.02 0.02
0.00 0.00 0.00 0.00 0.00 0.00 0.00 0.00 0.00 0.00 0.00 0.01 0.01 0.01 0.01 0.01 0.01 0.01 0.02 0.02 0.02 0.03 0.03 0.04 0.03 0.01 0.00 0.00 0.01 0.01 0.00 0.00 0.00 0.00 0.00 0.00 0.00 0.00 0.01 0.01 0.01 0.02 0.01
0.00 0.00 0.00 0.00 0.01 0.00 0.00 0.00 0.00 0.00 0.01 0.02 0.01 0.01 0.00 0.00 0.01 0.03 0.05 0.05 0.06 0.07 0.07 0.07 0.05 0.03 0.02 0.01 0.02 0.01 0.01 0.00 0.00 0.00 0.00 0.00 0.00 0.00 0.00 0.00 0.01 0.01 0.01
0.00 0.01 0.01 0.01 0.01 0.00 0.00 0.00 0.00 0.01 0.01 0.02 0.01 0.00 0.00 0.00 0.00 0.01 0.02 0.02 0.04 0.09 0.12 0.09 0.06 0.04 0.02 0.02 0.03 0.02 0.02 0.02 0.01 0.00 0.01 0.00 0.00 0.00 0.00 0.00 0.00 0.00 0.00
0.01 0.01 0.01 0.01 0.01 0.01 0.00 0.00 0.00 0.01 0.01 0.01 0.00 0.00 0.00 0.00 0.00 0.00 0.01 0.02 0.03 0.03 0.03 0.04 0.05 0.03 0.02 0.02 0.03 0.02 0.02 0.02 0.01 0.00 0.01 0.01 0.00 0.00 0.00 0.00 0.00 0.00 0.00
0.01 0.01 0.01 0.01 0.01 0.01 0.00 0.00 0.00 0.00 0.00 0.00 0.00 0.00 0.00 0.00 0.00 0.02 0.09 0.08 0.03 0.01 0.01 0.02 0.04 0.04 0.05 0.06 0.09 0.08 0.06 0.04 0.01 0.00 0.02 0.02 0.00 0.00 0.00 0.00 0.00 0.00 0.00
0.01 0.01 0.01 0.01 0.01 0.00 0.00 0.00 0.00 0.00 0.00 0.00 0.00 0.00 0.00 0.00 0.01 0.05 0.08 0.04 0.01 0.00 0.01 0.02 0.03 0.04 0.05 0.06 0.08 0.11 0.07 0.04 0.02 0.00 0.01 0.02 0.00 0.00 0.00 0.00 0.00 0.00 0.00
0.01 0.01 0.01 0.01 0.01 0.00 0.00 0.00 0.00 0.00 0.00 0.00 0.00 0.00 0.00 0.00 0.02 0.04 0.03 0.02 0.01 0.02 0.02 0.01 0.00 0.01 0.01 0.01 0.02 0.05 0.05 0.04 0.02 0.01 0.01 0.02 0.01 0.02 0.01 0.00 0.00 0.00 0.00
MSLP
1031.68 1031.81 1031.88 1031.89 1031.86 1031.83 1031.80 1031.79 1031.80 1031.83 1031.85 1031.83 1031.75 1031.59 1031.33 1030.98 1030.54 1030.05 1029.50 1028.94 1028.36 1027.77 1027.18 1026.59 1025.99 1025.38 1024.77 1024.16 1023.56 1022.96 1022.37 1021.79 1021.20 1020.61 1020.00 1019.38 1018.73 1018.06 1017.39 1016.71 1016.05 1015.42 1014.83
1031.25 1031.42 1031.54 1031.62 1031.68 1031.72 1031.76 1031.80 1031.84 1031.86 1031.83 1031.75 1031.59 1031.34 1031.01 1030.61 1030.16 1029.67 1029.18 1028.69 1028.20 1027.70 1027.19 1026.65 1026.06 1025.44 1024.78 1024.09 1023.40 1022.70 1022.03 1021.37 1020.73 1020.10 1019.46 1018.82 1018.17 1017.50 1016.82 1016.15 1015.49 1014.85 1014.27
1030.70 1030.91 1031.10 1031.26 1031.41 1031.53 1031.64 1031.72 1031.77 1031.77 1031.70 1031.55 1031.31 1030.98 1030.59 1030.14 1029.68 1029.21 1028.77 1028.35 1027.94 1027.53 1027.10 1026.61 1026.06 1025.43 1024.74 1024.00 1023.23 1022.46 1021.69 1020.95 1020.24 1019.54 1018.86 1018.18 1017.50 1016.81 1016.12 1015.44 1014.78 1014.16 1013.58
1030.11 1030.37 1030.62 1030.86 1031.09 1031.29 1031.45 1031.57 1031.62 1031.60 1031.48 1031.26 1030.95 1030.56 1030.10 1029.62 1029.14 1028.69 1028.28 1027.92 1027.58 1027.24 1026.87 1026.45 1025.93 1025.32 1024.63 1023.86 1023.04 1022.19 1021.35 1020.52 1019.72 1018.94 1018.18 1017.43 1016.70 1015.97 1015.26 1014.57 1013.92 1013.31 1012.76
1029.52 1029.81 1030.12 1030.44 1030.73 1031.00 1031.21 1031.35 1031.40 1031.35 1031.19 1030.92 1030.55 1030.10 1029.61 1029.10 1028.60 1028.15 1027.76 1027.42 1027.12 1026.83 1026.51 1026.13 1025.66 1025.08 1024.40 1023.62 1022.78 1021.89 1020.98 1020.06 1019.16 1018.28 1017.42 1016.58 1015.76 1014.97 1014.22 1013.51 1012.87 1012.30 1011.78
1028.94 1029.27 1029.63 1029.99 1030.34 1030.65 1030.89 1031.04 1031.10 1031.03 1030.84 1030.54 1030.14 1029.66 1029.14 1028.61 1028.09 1027.63 1027.23 1026.89 1026.59 1026.31 1026.01 1025.66 1025.22 1024.67 1024.02 1023.26 1022.41 1021.50 1020.54 1019.55 1018.55 1017.55 1016.57 1015.62 1014.70 1013.83 1013.03 1012.31 1011.68 1011.14 1010.69
1028.35 1028.71 1029.10 1029.51 1029.89 1030.22 1030.48 1030.64 1030.69 1030.62 1030.43 1030.12 1029.72 1029.25 1028.72 1028.18 1027.65 1027.16 1026.73 1026.35 1026.01 1025.70 1025.39 1025.04 1024.62 1024.10 1023.49 1022.76 1021.93 1021.01 1020.02 1018.97 1017.88 1016.78 1015.68 1014.60 1013.58 1012.62 1011.77 1011.03 1010.41 1009.91 1009.51
1027.72 1028.10 1028.52 1028.94 1029.34 1029.68 1029.94 1030.11 1030.17 1030.11 1029.94 1029.67 1029.30 1028.86 1028.36 1027.83 1027.29 1026.77 1026.27 1025.82 1025.42 1025.04 1024.68 1024.30 1023.87 1023.38 1022.80 1022.12 1021.33 1020.43 1019.43 1018.34 1017.19 1015.99 1014.78 1013.60 1012.47 1011.43 1010.52 1009.75 1009.14 1008.67 1008.33
1027.01 1027.41 1027.84 1028.27 1028.66 1029.01 1029.27 1029.44 1029.52 1029.50 1029.38 1029.17 1028.87 1028.49 1028.04 1027.54 1026.99 1026.43 1025.86 1025.33 1024.82 1024.34 1023.89 1023.46 1023.01 1022.53 1021.98 1021.35 1020.61 1019.75 1018.77 1017.68 1016.50 1015.24 1013.96 1012.69 1011.47 1010.36 1009.39 1008.59 1007.97 1007.53 1007.22
1026.20 1026.62 1027.06 1027.48 1027.87 1028.20 1028.46 1028.65 1028.75 1028.78 1028.72 1028.60 1028.39 1028.09 1027.71 1027.25 1026.71 1026.10 1025.47 1024.83 1024.20 1023.61 1023.06 1022.55 1022.07 1021.58 1021.06 1020.48 1019.80 1019.01 1018.08 1017.02 1015.84 1014.57 1013.25 1011.93 1010.66 1009.50 1008.48 1007.64 1007.00 1006.54 1006.25
1025.30 1025.74 1026.18 1026.61 1026.99 1027.31 1027.57 1027.76 1027.89 1027.97 1027.99 1027.95 1027.84 1027.63 1027.33 1026.90 1026.37 1025.74 1025.03 1024.29 1023.55 1022.84 1022.18 1021.59 1021.06 1020.56 1020.06 1019.53 1018.92 1018.21 1017.36 1016.37 1015.24 1014.00 1012.69 1011.36 1010.07 1008.86 1007.81 1006.93 1006.25 1005.76 1005.45
1024.33 1024.80 1025.26 1025.68 1026.05 1026.36 1026.62 1026.81 1026.97 1027.09 1027.17 1027.21 1027.18 1027.06 1026.82 1026.44 1025.92 1025.26 1024.50 1023.67 1022.82 1022.01 1021.25 1020.58 1020.00 1019.49 1019.01 1018.53 1017.99 1017.36 1016.61 1015.71 1014.66 1013.50 1012.24 1010.94 1009.66 1008.45 1007.37 1006.45 1005.73 1005.19 1004.83
1023.33 1023.83 1024.31 1024.74 1025.10 1025.40 1025.65 1025.84 1026.01 1026.15 1026.28 1026.37 1026.40 1026.34 1026.15 1025.81 1025.30 1024.62 1023.82 1022.93 1022.01 1021.11 1020.28 1019.54 1018.92 1018.39 1017.93 1017.48 1017.01 1016.47 1015.81 1015.02 1014.09 1013.02 1011.85 1010.62 1009.39 1008.20 1007.11 1006.16 1005.38 1004.79 1004.36
1022.32 1022.86 1023.36 1023.79 1024.16 1024.45 1024.68 1024.86 1025.02 1025.17 1025.31 1025.43 1025.49 1025.46 1025.30 1024.97 1024.47 1023.79 1022.96 1022.04 1021.08 1020.13 1019.25 1018.48 1017.82 1017.28 1016.82 1016.41 1015.99 1015.52 1014.95 1014.27 1013.45 1012.50 1011.44 1010.30 1009.14 1008.00 1006.93 1005.97 1005.16 1004.51 1004.02
1021.30 1021.88 1022.40 1022.85 1023.22 1023.50 1023.72 1023.88 1024.02 1024.15 1024.28 1024.38 1024.44 1024.41 1024.25 1023.94 1023.44 1022.77 1021.95 1021.02 1020.05 1019.09 1018.20 1017.40 1016.73 1016.18 1015.71 1015.31 1014.92 1014.50 1014.01 1013.42 1012.70 1011.87 1010.93 1009.90 1008.83 1007.76 1006.73 1005.79 1004.97 1004.29 1003.76
1020.26 1020.87 1021.42 1021.89 1022.26 1022.54 1022.74 1022.89 1023.00 1023.10 1023.18 1023.25 1023.28 1023.22 1023.05 1022.73 1022.24 1021.58 1020.79 1019.89 1018.95 1018.01 1017.13 1016.34 1015.66 1015.10 1014.62 1014.22 1013.83 1013.43 1012.99 1012.46 1011.83 1011.10 1010.27 1009.35 1008.39 1007.40 1006.44 1005.54 1004.75 1004.07 1003.54
1019.18 1019.80 1020.38 1020.86 1021.25 1021.54 1021.73 1021.86 1021.94 1021.99 1022.03 1022.05 1022.03 1021.93 1021.73 1021.40 1020.92 1020.29 1019.54 1018.69 1017.80 1016.92 1016.07 1015.31 1014.63 1014.06 1013.57 1013.14 1012.74 1012.34 1011.90 1011.41 1010.84 1010.19 1009.45 1008.64 1007.78 1006.89 1006.01 1005.18 1004.45 1003.82 1003.31
1018.01 1018.66 1019.25 1019.77 1020.17 1020.47 1020.67 1020.79 1020.85 1020.86 1020.85 1020.82 1020.74 1020.59 1020.36 1020.01 1019.54 1018.95 1018.25 1017.47 1016.66 1015.83 1015.05 1014.32 1013.66 1013.08 1012.56 1012.10 1011.67 1011.24 1010.80 1010.31 1009.78 1009.18 1008.52 1007.79 1007.02 1006.23 1005.45 1004.71 1004.05 1003.49 1003.06
1016.78 1017.44 1018.06 1018.60 1019.03 1019.36 1019.57 1019.69 1019.73 1019.72 1019.67 1019.58 1019.44 1019.25 1018.98 1018.62 1018.17 1017.61 1016.97 1016.26 1015.53 1014.78 1014.05 1013.36 1012.73 1012.14 1011.61 1011.11 1010.64 1010.18 1009.71 1009.22 1008.70 1008.14 1007.53 1006.88 1006.19 1005.48 1004.78 1004.13 1003.55 1003.08 1002.73
1015.50 1016.18 1016.82 1017.40 1017.87 1018.22 1018.46 1018.58 1018.62 1018.58 1018.50 1018.36 1018.18 1017.94 1017.65 1017.28 1016.83 1016.31 1015.72 1015.09 1014.42 1013.75 1013.08 1012.44 1011.82 1011.24 1010.69 1010.16 1009.66 1009.17 1008.68 1008.19 1007.67 1007.14 1006.57 1005.96 1005.33 1004.69 1004.06 1003.48 1002.98 1002.59 1002.32
1014.24 1014.94 1015.61 1016.22 1016.72 1017.10 1017.36 1017.50 1017.53 1017.48 1017.37 1017.19 1016.97 1016.70 1016.38 1016.00 1015.57 1015.07 1014.53 1013.95 1013.35 1012.73 1012.12 1011.51 1010.92 1010.35 1009.79 1009.25 1008.73 1008.22 1007.72 1007.23 1006.73 1006.21 1005.67 1005.10 1004.51 1003.92 1003.33 1002.80 1002.35 1002.00 1001.79
1013.05 1013.77 1014.47 1015.11 1015.64 1016.04 1016.31 1016.46 1016.49 1016.43 1016.29 1016.08 1015.83 1015.53 1015.19 1014.81 1014.38 1013.90 1013.40 1012.86 1012.30 1011.73 1011.16 1010.58 1010.01 1009.44 1008.89 1008.35 1007.83 1007.32 1006.83 1006.35 1005.87 1005.38 1004.87 1004.34 1003.78 1003.20 1002.64 1002.12 1001.68 1001.35 1001.15
1011.99 1012.73 1013.46 1014.10 1014.65 1015.06 1015.33 1015.47 1015.49 1015.41 1015.25 1015.03 1014.75 1014.44 1014.09 1013.70 1013.27 1012.81 1012.33 1011.82 1011.29 1010.74 1010.19 1009.63 1009.07 1008.52 1007.98 1007.45 1006.94 1006.46 1005.99 1005.55 1005.11 1004.65 1004.18 1003.67 1003.13 1002.57 1002.00 1001.47 1001.01 1000.66 1000.43
1011.07 1011.83 1012.56 1013.20 1013.73 1014.13 1014.39 1014.51 1014.52 1014.42 1014.25 1014.02 1013.73 1013.41 1013.06 1012.68 1012.26 1011.82 1011.35 1010.85 1010.33 1009.80 1009.25 1008.70 1008.14 1007.59 1007.05 1006.54 1006.06 1005.61 1005.18 1004.78 1004.39 1003.99 1003.56 1003.09 1002.57 1002.01 1001.44 1000.88 1000.37 999.96 999.67
1010.26 1011.02 1011.73 1012.35 1012.86 1013.22 1013.45 1013.55 1013.54 1013.43 1013.26 1013.03 1012.76 1012.46 1012.13 1011.76 1011.37 1010.94 1010.48 1009.99 1009.47 1008.93 1008.37 1007.81 1007.24 1006.68 1006.15 1005.65 1005.18 1004.77 1004.39 1004.04 1003.70 1003.36 1002.98 1002.55 1002.06 1001.52 1000.94 1000.35 999.79 999.31 998.94
1009.51 1010.25 1010.92 1011.50 1011.95 1012.27 1012.46 1012.54 1012.52 1012.42 1012.26 1012.07 1011.83 1011.57 1011.28 1010.95 1010.59 1010.19 1009.74 1009.26 1008.73 1008.18 1007.60 1007.01 1006.42 1005.85 1005.30 1004.80 1004.34 1003.95 1003.60 1003.29 1003.01 1002.72 1002.40 1002.02 1001.58 1001.06 1000.49 999.88 999.28 998.74 998.28
Thickness
5539 5533 5527 5522 5516 5511 5505 5499 5493 5487 5480 5475 5469 5464 5459 5454 5449 5444 5439 5434 5430 5425 5420 5414 5409 5405 5401 5401 5404 5411 5422 5439 5459 5481 5504 5524 5543 5561 5579 5596 5612 5628 5642
5534 5527 5521 5515 5509 5502 5496 5489 5482 5475 5468 5462 5456 5451 5445 5440 5434 5428 5421 5413 5404 5396 5387 5379 5372 5366 5363 5361 5363 5367 5377 5392 5412 5437 5463 5489 5513 5536 5556 5575 5594 5612 5628
5529 5522 5514 5508 5501 5494 5486 5479 5472 5465 5457 5451 5445 5438 5432 5426 5418 5411 5402 5392 5380 5367 5355 5345 5337 5331 5328 5326 5328 5332 5340 5353 5370 5393 5420 5449 5478 5506 5531 5553 5575 5595 5613
5524 5516 5508 5501 5493 5485 5477 5470 5462 5454 5447 5440 5434 5427 5420 5412 5403 5393 5382 5369 5354 5340 5326 5313 5304 5299 5295 5295 5296 5301 5308 5320 5336 5356 5381 5410 5442 5474 5503 5529 5553 5576 5597
5520 5512 5503 5495 5486 5477 5469 5460 5453 5444 5436 5429 5423 5417 5409 5399 5388 5376 5361 5345 5329 5313 5299 5286 5277 5270 5266 5266 5268 5272 5280 5291 5307 5326 5349 5376 5407 5441 5474 5504 5531 5556 5580
5516 5507 5498 5488 5479 5469 5460 5451 5442 5434 5425 5418 5412 5406 5396 5386 5372 5357 5340 5323 5306 5289 5275 5263 5253 5246 5242 5240 5242 5247 5254 5266 5281 5301 5323 5349 5378 5410 5445 5478 5508 5536 5562
5512 5502 5492 5482 5472 5461 5452 5442 5432 5423 5414 5405 5398 5394 5388 5375 5359 5341 5322 5304 5286 5270 5255 5242 5233 5226 5221 5219 5220 5223 5231 5243 5259 5278 5302 5327 5355 5385 5419 5453 5485 5516 5544
5507 5497 5487 5476 5465 5454 5443 5433 5422 5411 5402 5391 5380 5373 5368 5363 5348 5330 5309 5288 5269 5253 5238 5226 5217 5210 5204 5201 5201 5204 5211 5222 5239 5259 5282 5308 5336 5365 5397 5430 5463 5495 5525
5503 5493 5482 5470 5459 5447 5436 5424 5412 5400 5389 5377 5362 5348 5335 5331 5329 5322 5300 5280 5259 5241 5226 5214 5206 5198 5191 5187 5186 5189 5195 5206 5222 5242 5264 5290 5319 5348 5379 5410 5443 5476 5507
5499 5488 5477 5465 5453 5441 5428 5416 5404 5390 5377 5364 5350 5334 5319 5304 5289 5294 5291 5270 5250 5233 5218 5206 5197 5189 5183 5178 5177 5179 5183 5193 5209 5227 5248 5273 5301 5331 5363 5394 5426 5459 5490
5494 5483 5471 5459 5447 5434 5422 5408 5395 5381 5367 5353 5338 5323 5306 5289 5269 5255 5262 5263 5247 5229 5212 5200 5190 5183 5177 5173 5171 5172 5176 5185 5198 5214 5234 5257 5283 5313 5345 5378 5409 5441 5473
5489 5478 5466 5454 5441 5428 5415 5401 5387 5372 5358 5343 5328 5312 5295 5277 5263 5244 5237 5239 5238 5229 5211 5197 5185 5178 5174 5171 5168 5168 5172 5179 5189 5203 5220 5241 5265 5293 5324 5357 5389 5422 5455
5485 5474 5462 5449 5436 5422 5409 5395 5380 5365 5350 5335 5320 5304 5287 5271 5255 5238 5225 5224 5225 5226 5212 5199 5186 5177 5172 5168 5165 5164 5168 5173 5181 5193 5208 5228 5250 5277 5306 5337 5370 5403 5436
5486 5473 5458 5444 5431 5417 5402 5388 5374 5359 5344 5329 5314 5298 5282 5266 5249 5233 5218 5208 5211 5222 5216 5201 5189 5177 5170 5166 5163 5163 5165 5168 5175 5185 5199 5218 5239 5264 5290 5320 5351 5384 5417
5481 5467 5453 5439 5425 5410 5396 5382 5368 5353 5338 5323 5308 5293 5277 5263 5247 5231 5216 5202 5192 5200 5216 5205 5189 5179 5170 5165 5162 5161 5162 5165 5171 5180 5192 5208 5228 5252 5278 5306 5336 5367 5400
5477 5463 5448 5434 5419 5405 5390 5376 5362 5348 5333 5318 5303 5289 5274 5260 5245 5231 5218 5206 5194 5187 5198 5202 5190 5180 5171 5166 5163 5161 5160 5163 5168 5175 5185 5200 5220 5242 5267 5294 5322 5352 5385
5473 5459 5444 5429 5415 5400 5385 5371 5358 5343 5329 5315 5300 5286 5273 5258 5244 5232 5220 5209 5199 5189 5191 5200 5189 5182 5174 5168 5164 5160 5159 5160 5164 5171 5181 5195 5212 5234 5257 5282 5310 5340 5372
5470 5455 5440 5425 5410 5396 5381 5367 5353 5340 5325 5312 5298 5283 5271 5257 5245 5232 5221 5212 5202 5193 5187 5192 5191 5183 5176 5170 5166 5163 5161 5161 5163 5169 5178 5191 5208 5228 5251 5276 5301 5329 5360
5465 5450 5435 5421 5406 5392 5377 5363 5350 5336 5322 5309 5296 5282 5269 5256 5245 5234 5223 5213 5205 5197 5190 5188 5191 5185 5180 5172 5168 5165 5162 5161 5162 5167 5176 5188 5204 5223 5245 5270 5295 5322 5351
5461 5446 5431 5417 5402 5388 5373 5360 5346 5333 5320 5307 5294 5281 5269 5256 5245 5235 5225 5216 5208 5201 5194 5190 5190 5188 5182 5176 5168 5166 5165 5162 5163 5166 5173 5184 5199 5218 5240 5264 5290 5317 5344
5457 5442 5427 5412 5397 5383 5370 5355 5342 5330 5317 5306 5294 5281 5270 5258 5247 5237 5228 5219 5210 5203 5197 5193 5192 5189 5184 5176 5170 5166 5164 5164 5165 5165 5171 5181 5194 5213 5234 5258 5284 5310 5338
5451 5436 5422 5407 5393 5381 5369 5357 5344 5332 5319 5307 5296 5284 5270 5258 5247 5238 5230 5221 5212 5204 5200 5195 5192 5187 5183 5177 5171 5167 5164 5163 5167 5168 5170 5182 5192 5210 5231 5254 5280 5307 5334
5445 5430 5417 5403 5390 5377 5366 5355 5344 5333 5320 5308 5295 5282 5270 5259 5249 5237 5228 5221 5213 5205 5200 5195 5191 5187 5183 5179 5173 5170 5167 5167 5169 5170 5171 5183 5194 5211 5231 5253 5279 5305 5331
5440 5426 5413 5400 5387 5375 5364 5353 5342 5331 5318 5305 5292 5280 5268 5258 5246 5237 5231 5225 5215 5205 5199 5195 5190 5189 5186 5182 5177 5175 5174 5173 5174 5174 5176 5184 5197 5213 5233 5256 5281 5306 5331
5436 5423 5410 5396 5383 5372 5361 5350 5339 5326 5315 5302 5290 5278 5267 5257 5249 5243 5235 5226 5217 5208 5203 5199 5197 5193 5190 5186 5182 5178 5176 5175 5179 5181 5183 5188 5200 5215 5237 5261 5284 5308 5332
5433 5419 5406 5393 5381 5369 5357 5347 5336 5324 5313 5301 5289 5278 5268 5259 5251 5243 5234 5224 5216 5211 5207 5201 5196 5192 5188 5184 5182 5178 5175 5175 5178 5183 5189 5193 5203 5216 5240 5265 5286 5308 5331